Location: Saluda
(35.2377°N, 82.3468°W)
Time: 03:04:00
(UTC+00:00)

Vanguard 2 Rocket - Pass Details

Date: 09 October 2022
Orbit: 555 x 3321 km, 32.9° (Epoch: 05 December)

Event Time Altitude Azimuth Distance (km) Brightness Sun altitude
Rises 09:00:19 0° 278° (W) 4,925 - -31.2°
Reaches altitude 10° 09:05:29 10° 261° (W) 3,342 - -30.2°
Maximum altitude 09:10:03 16° 225° (SW) 2,377 - -29.3°
Drops below altitude 10° 09:13:35 10° 187° (S) 2,444 - -28.6°
Exits shadow 09:15:48 - 169° (S) 2,890 9.5 -28.2°
Sets 09:16:33 0° 164° (SSE) 3,092 9.7 -28.0°
